Tracking 31027 objects as of 19-Jul-2025
HD Live streaming from Space Station
objects crossing your sky now

METEOR 2-17 DEB

Track METEOR 2-17 DEB now!
10-day predictions


NORAD ID: 38285
Int'l Code: 1988-005AN
Perigee: 898.5 km
Apogee: 918.4 km
Inclination: 82.5 °
Period: 103.0 minutes
Semi major axis: 7279 km
RCS: 0.0154 m2 (small)
Launch date: January 30, 1988
Source: Commonwealth of Independent States (former USSR) (CIS)
Launch site: PLESETSK MISSILE AND SPACE COMPLEX (PKMTR)

Note: This is SATELLITE DEBRIS
Your satellite tracking list
Your tracking list is empty




NASA's NSSDC Master Catalog

Two Line Element Set (TLE):
1 38285U 88005AN  25197.75972199  .00000930  00000-0  64654-3 0  9990
2 38285  82.5469 200.6895 0013726 127.7388 232.5026 13.97831732163922
Source of the keplerian elements: AFSPC